Black River Falls, WI

11:55 PM CDT on October 18, 2017 (GMT -0500)
Black River Falls Area

Weather History for KBCK - February, 2014

Change the Weather History Date:

Thursday, February 20, 2014

  Actual Average (KCMY) Record (KCMY)
Temperature  
Mean Temperature 32 °F -  
Max Temperature 37 °F 33 °F 58 °F (2017)
Min Temperature 28 °F 10 °F -28 °F (1966)
Degree Days  
Heating Degree Days 32    
Moisture  
Dew Point 29 °F    
Average Humidity 83    
Maximum Humidity 100    
Minimum Humidity 56    
Precipitation  
Precipitation 0.24 in - - ()
Sea Level Pressure  
Sea Level Pressure 29.41 in    
Wind  
Wind Speed 6 mph (East)    
Max Wind Speed 20 mph    
Max Gust Speed 25 mph    
Visibility 8 miles    
Events Rain , Snow    
Averages and records for this station are not official NWS values.
T = Trace of Precipitation, MM = Missing Value Source: NWS Daily Summary

Daily Weather History Graph

Daily Weather History Graph

Search for Another Location

Airport or City:

Trip Planner

Search our weather history database for the weather conditions in past years. The results will help you decide how hot, cold, wet, or windy it might be!

Date:

Astronomy

Feb. 20, 2014 Rise Set
Actual Time 6:55 AM CST 5:39 PM CST
Civil Twilight 6:25 AM CST 6:09 PM CST
Nautical Twilight 5:52 AM CST 6:42 PM CST
Astronomical Twilight 5:18 AM CST 7:16 PM CST
Moon 11:48 PM CST (2/20) 9:25 AM CST (2/20)
Length of Visible Light 11h 43m
Length of Day
10h 44m
Waning Gibbous, 70% of the Moon is Illuminated
Feb 20
Waning Gibbous
Feb 22
Last Quarter
Mar 1
New
Mar 8
First Quarter
Mar 16
Full

Hourly Weather History & Observations

Time (CST) Temp. Windchill Dew Point Humidity Pressure Visibility Wind Dir Wind Speed Gust Speed Precip Events Conditions
12:15 AM 28.4 °F 23.3 °F 22.6 °F 79% 29.79 in 10.0 mi East 4.6 mph - N/A   Clear
12:35 AM 29.8 °F 24.9 °F 23.2 °F 76% 29.79 in 10.0 mi East 4.6 mph - N/A   Scattered Clouds
12:55 AM 29.3 °F - 23.2 °F 78% 29.79 in 10.0 mi Calm Calm - N/A   Mostly Cloudy
1:15 AM 29.7 °F - 22.8 °F 76% 29.78 in 10.0 mi Calm Calm - N/A   Scattered Clouds
1:21 AM 28.4 °F 24.6 °F 23.0 °F 80% 29.77 in 10.0 mi NE 3.5 mph - N/A   Scattered Clouds
2:35 AM 30.4 °F 25.6 °F 22.1 °F 71% 29.75 in 10.0 mi NE 4.6 mph - N/A   Scattered Clouds
2:55 AM 30.9 °F 27.5 °F 22.5 °F 71% 29.74 in 10.0 mi ENE 3.5 mph - N/A   Scattered Clouds
3:00 AM 32.0 °F - 21.2 °F 64% 29.74 in 10.0 mi Calm Calm - N/A   Scattered Clouds
3:38 AM 30.2 °F - 21.2 °F 69% 29.73 in 10.0 mi Calm Calm - N/A   Overcast
4:35 AM 29.7 °F - 23.5 °F 78% 29.71 in 10.0 mi Calm Calm - N/A   Overcast
4:55 AM 31.3 °F - 24.8 °F 77% 29.71 in 10.0 mi Calm Calm - N/A   Overcast
5:15 AM 31.1 °F - 24.6 °F 77% 29.70 in 10.0 mi Calm Calm - N/A   Overcast
5:55 AM 35.2 °F 31.2 °F 22.1 °F 59% 29.69 in 10.0 mi ESE 4.6 mph - N/A   Overcast
5:58 AM 35.6 °F 32.8 °F 21.2 °F 56% 29.69 in 10.0 mi ESE 3.5 mph - N/A   Overcast
6:35 AM 35.8 °F 31.9 °F 22.5 °F 58% 29.68 in 10.0 mi SE 4.6 mph - N/A   Overcast
6:55 AM 36.0 °F 30.3 °F 22.8 °F 59% 29.67 in 10.0 mi ESE 6.9 mph - N/A   Light Drizzle
7:00 AM 35.6 °F 30.7 °F 23.0 °F 60% 29.66 in 10.0 mi ESE 5.8 mph - N/A   Light Drizzle
7:35 AM 35.8 °F 30.9 °F 23.7 °F 62% 29.65 in 10.0 mi ESE 5.8 mph - N/A   Overcast
7:55 AM 36.5 °F 31.0 °F 25.2 °F 64% 29.66 in 10.0 mi SE 6.9 mph - N/A   Overcast
8:15 AM 36.5 °F 30.3 °F 26.2 °F 66% 29.65 in 10.0 mi ESE 8.1 mph - N/A   Overcast
8:35 AM 36.5 °F 29.7 °F 27.3 °F 69% 29.64 in 10.0 mi East 9.2 mph - N/A   Overcast
8:55 AM 36.1 °F 30.6 °F 27.0 °F 69% 29.63 in 10.0 mi East 6.9 mph - N/A   Overcast
9:35 AM 36.1 °F 30.6 °F 28.9 °F 75% 29.62 in 10.0 mi East 6.9 mph - N/A   Overcast
9:40 AM 35.6 °F 28.6 °F 28.4 °F 75% 29.63 in 10.0 mi East 9.2 mph - N/A   Overcast
9:55 AM 36.5 °F 30.3 °F 29.8 °F 77% 29.62 in 10.0 mi East 8.1 mph - N/A   Overcast
10:35 AM 36.9 °F 30.1 °F 31.3 °F 80% 29.59 in 10.0 mi ESE 9.2 mph - N/A   Overcast
11:55 AM 36.7 °F 28.4 °F 32.0 °F 83% 29.51 in 10.0 mi East 12.7 mph 18.4 mph N/A   Overcast
12:15 PM 36.9 °F 29.6 °F 32.0 °F 83% 29.49 in 7.0 mi East 10.4 mph - N/A   Overcast
12:18 PM 37.4 °F 29.3 °F 32.0 °F 81% 29.48 in 7.0 mi East 12.7 mph 17.3 mph N/A   Overcast
12:58 PM 37.4 °F 29.8 °F 32.0 °F 81% 29.43 in 10.0 mi East 11.5 mph 21.9 mph N/A   Overcast
1:15 PM 36.9 °F 28.2 °F 32.0 °F 83% 29.40 in 10.0 mi East 13.8 mph 24.2 mph N/A   Overcast
1:35 PM 36.9 °F 28.7 °F 32.0 °F 83% 29.37 in 10.0 mi East 12.7 mph 23.0 mph N/A   Overcast
1:55 PM 37.0 °F 28.5 °F 32.0 °F 82% 29.36 in 10.0 mi East 13.8 mph 19.6 mph N/A   Overcast
1:59 PM 37.4 °F 28.9 °F 32.0 °F 81% 29.36 in 10.0 mi East 13.8 mph 19.6 mph N/A   Overcast
2:15 PM 37.2 °F 29.6 °F 32.0 °F 81% 29.33 in 10.0 mi East 11.5 mph 18.4 mph N/A   Overcast
2:35 PM 37.2 °F 27.0 °F 32.0 °F 81% 29.31 in 10.0 mi East 19.6 mph 24.2 mph N/A   Overcast
3:40 PM 35.6 °F 26.2 °F 35.6 °F 100% 29.24 in 2.5 mi ENE 15.0 mph 25.3 mph 0.07 in   Overcast
5:15 PM 34.0 °F 28.0 °F 34.0 °F 100% 29.20 in 1.8 mi East 6.9 mph - 0.07 in   Overcast
5:35 PM 34.0 °F 24.6 °F 34.0 °F 100% 29.12 in 7.0 mi ENE 13.8 mph - 0.08 in Snow Light Snow
5:55 PM 34.2 °F 26.8 °F 34.2 °F 100% 29.13 in 10.0 mi ENE 9.2 mph - 0.08 in   Overcast
6:15 PM 34.3 °F 25.9 °F 34.0 °F 99% 29.10 in 7.0 mi East 11.5 mph 19.6 mph N/A   Overcast
6:35 PM 34.2 °F 28.2 °F 34.0 °F 99% 29.09 in 7.0 mi ENE 6.9 mph 17.3 mph N/A   Overcast
6:55 PM 34.0 °F 31.0 °F 34.0 °F 100% 29.08 in 2.0 mi East 3.5 mph - 0.02 in Snow Light Snow
7:15 PM 33.8 °F - 33.8 °F 100% 29.08 in 2.0 mi Calm Calm - 0.02 in Snow Snow
7:35 PM 33.1 °F 28.7 °F 33.1 °F 100% 29.09 in 1.2 mi WNW 4.6 mph - 0.04 in Rain Rain
7:55 PM 32.9 °F 28.5 °F 32.9 °F 100% 29.08 in 1.0 mi NW 4.6 mph - 0.05 in Snow Light Snow
8:15 PM 32.9 °F 28.5 °F 32.9 °F 100% 29.06 in 0.5 mi NW 4.6 mph - 0.02 in Snow Snow
8:35 PM 32.9 °F 27.5 °F 32.9 °F 100% 29.04 in 2.5 mi NW 5.8 mph - 0.02 in Snow Light Snow
8:55 PM 32.9 °F 29.8 °F 32.9 °F 100% 29.04 in 4.0 mi NW 3.5 mph - 0.02 in Snow Light Snow
9:15 PM 32.9 °F 28.5 °F 32.9 °F 100% 29.03 in 10.0 mi NW 4.6 mph - N/A   Overcast
9:35 PM 33.1 °F 26.9 °F 33.1 °F 100% 29.03 in 10.0 mi WNW 6.9 mph - N/A   Overcast
10:00 PM 33.3 °F 26.4 °F 33.3 °F 100% 29.02 in 10.0 mi WNW 8.1 mph - N/A   Overcast
10:15 PM 33.3 °F 25.1 °F 33.3 °F 100% 29.02 in 4.0 mi West 10.4 mph - N/A Snow Light Snow
10:35 PM 33.1 °F 25.5 °F 33.1 °F 100% 29.02 in 3.0 mi West 9.2 mph - N/A Snow Light Snow
10:55 PM 33.1 °F 26.1 °F 33.1 °F 100% 29.03 in 1.0 mi West 8.1 mph - N/A Snow Light Snow
11:15 PM 32.9 °F 25.9 °F 32.9 °F 100% 29.03 in 1.0 mi West 8.1 mph - N/A Snow Light Snow
11:35 PM 32.9 °F 24.1 °F 32.9 °F 100% 29.03 in 1.2 mi West 11.5 mph 17.3 mph N/A Snow Light Snow
11:55 PM 33.3 °F 23.2 °F 33.3 °F 100% 29.04 in 4.0 mi West 15.0 mph 23.0 mph N/A Snow Light Snow